Lexington Weather

Lexington, Massachusetts, USA

50°F
12/8/2022 2:05pm 
  • Lexington Conditions: Clear
  • Temperature: 49.6°F / 9.8°CColder 1.3°F than last hour.
  • Dew Point: 35.4°FDecreased 1.3°Fsince last hour.
  • Relative Humidity: 58
  • Wind: Wind from NW NW 9 mph, 10-min avg: 3 mph, gust: 11 mph
  • Barometer: 30.07 inRising 0.02  inHg/hr Rising Slowly
  • Visibility: 10 miles
  • Rain Today: 0.00 in
  •   

Warning: Undefined variable $rc in /homepages/6/d276339138/htdocs/weather/20190804/ssi/nwsProduct.php on line 323

Warning: Undefined variable $rc in /homepages/6/d276339138/htdocs/weather/20190804/ssi/nwsProduct.php on line 325

Warning: Undefined variable $rc in /homepages/6/d276339138/htdocs/weather/20190804/ssi/nwsProduct.php on line 323

Warning: Undefined variable $rc in /homepages/6/d276339138/htdocs/weather/20190804/ssi/nwsProduct.php on line 325

Warning: Undefined variable $rc in /homepages/6/d276339138/htdocs/weather/20190804/ssi/nwsProduct.php on line 323

Warning: Undefined variable $rc in /homepages/6/d276339138/htdocs/weather/20190804/ssi/nwsProduct.php on line 325

Warning: Undefined variable $rc in /homepages/6/d276339138/htdocs/weather/20190804/ssi/nwsProduct.php on line 323

Warning: Undefined variable $rc in /homepages/6/d276339138/htdocs/weather/20190804/ssi/nwsProduct.php on line 325

Warning: Undefined variable $rc in /homepages/6/d276339138/htdocs/weather/20190804/ssi/nwsProduct.php on line 323

Warning: Undefined variable $rc in /homepages/6/d276339138/htdocs/weather/20190804/ssi/nwsProduct.php on line 325

Warning: Undefined variable $rc in /homepages/6/d276339138/htdocs/weather/20190804/ssi/nwsProduct.php on line 323

Warning: Undefined variable $rc in /homepages/6/d276339138/htdocs/weather/20190804/ssi/nwsProduct.php on line 325

Warning: Undefined variable $rc in /homepages/6/d276339138/htdocs/weather/20190804/ssi/nwsProduct.php on line 323

Warning: Undefined variable $rc in /homepages/6/d276339138/htdocs/weather/20190804/ssi/nwsProduct.php on line 325

Regional Weather Roundup
for Boston, MA

        
000
ASUS41 KBOX 070110
RWRBOX

REGIONAL WEATHER ROUNDUP
NATIONAL WEATHER SERVICE BOSTON/NORTON MA
800 PM EST TUE DEC 06 2022

NOTE:  "FAIR" INDICATES FEW OR NO CLOUDS BELOW 12,000 FEET WITH NO 
SIGNIFICANT WEATHER AND/OR OBSTRUCTIONS TO VISIBILITY.

MAZALL-070200-
EASTERN MASSACHUSETTS
  
CITY           SKY/WX    TMP DP  RH WIND       PRES   REMARKS
BOSTON         LGT RAIN  50  47  89 E6        30.41S                  
BEVERLY        LGT RAIN  49  48  97 SE10      30.41S                  
LAWRENCE       CLOUDY    51  48  89 VRB6      30.42S                  
BEDFORD        LGT RAIN  51  46  83 SE9       30.38F                  
NORWOOD        CLOUDY    50  46  86 CALM      30.40S                  
MARSHFIELD       N/A     50  48  93 SE7       30.41R                  
PLYMOUTH       CLOUDY    51  48  89 SE7       30.39F                  
TAUNTON          N/A    N/A N/A N/A MISG      30.39S                  
NEW BEDFORD    LGT RAIN  51  50  96 E10       30.39S                  
$$

MAZALL-070200-
CAPE COD AND THE ISLANDS
  
CITY           SKY/WX    TMP DP  RH WIND       PRES   REMARKS
FALMOUTH       DRIZZLE   50  48  93 SE15      30.40S                  
HYANNIS        CLOUDY    50  48  93 E8        30.39F                  
CHATHAM        MOCLDY    53  48  83 E9        30.42F                  
PROVINCETOWN   MOCLDY    51  47  86 SE13      30.42F                  
NANTUCKET      MOCLDY    53  50  89 SE12      30.41F                  
MARTHAS VNYRD  LGT RAIN  53  49  86 SE13      30.39F                  
$$
 
MAZALL-070200-
CENTRAL AND WESTERN MASSACHUSETTS
  
CITY           SKY/WX    TMP DP  RH WIND       PRES   REMARKS
WORCESTER      CLOUDY    49  45  86 SE6       30.36S                  
FITCHBURG      CLOUDY    45  41  86 CALM      30.39S                  
ORANGE         LGT RAIN  51  45  79 SE10      30.34F                  
SPRINGFIELD    LGT RAIN  54  48  82 S7        30.30F                  
WESTFIELD      LGT RAIN  42  41  96 CALM      30.33S                  
NORTH ADAMS    LGT RAIN  52  46  80 SE17G30   30.27S                  
PITTSFIELD     LGT RAIN  49  46  90 SE12G20   30.26F                  
$$
 
RIZALL-070200-
RHODE ISLAND
  
CITY           SKY/WX    TMP DP  RH WIND       PRES   REMARKS
PROVIDENCE     CLOUDY    50  47  89 SE6       30.39S                  
NEWPORT        CLOUDY    50  48  93 SE9       30.37F                  
BLOCK ISLAND   CLOUDY    53  50  89 SE14G22   30.35F                  
SMITHFIELD     CLOUDY    48  46  93 SE10      30.37F                  
WESTERLY       CLOUDY    53  50  89 E12       30.35F                  
$$
 
CTZALL-070200-
CONNECTICUT
  
CITY           SKY/WX    TMP DP  RH WIND       PRES   REMARKS
BRADLEY INTL   CLOUDY    45  43  93 CALM      30.33R                  
HARTFORD       CLOUDY    55  49  80 SE3       30.32R                  
BRIDGEPORT     LGT RAIN  54  50  86 E3        30.31S                  
DANBURY        LGT RAIN  55  52  89 SE7       30.29F                  
GROTON         CLOUDY    56  51  84 E14       30.34F                  
NEW HAVEN      CLOUDY    55  51  86 SE6       30.32R FOG              
CHESTER        LGT RAIN  54  52  94 VRB6G15   30.33S                  
MERIDEN        LGT RAIN  54  49  83 S8        30.31S                  
WILLIMANTIC    CLOUDY    52  50  93 VRB5      30.35S                  
OXFORD         LGT RAIN  52  50  93 SE12      30.31S                  
$$

MEZ002-015-021-024-NHZ003-005-008-011-012-014-VTZ005-008-070200-
NORTHERN NEW ENGLAND
  
CITY           SKY/WX    TMP DP  RH WIND       PRES   REMARKS
PORTLAND ME    CLOUDY    47  44  90 SE8       30.46S                  
BANGOR ME      CLOUDY    43  38  82 SE7       30.51F                  
CONCORD NH     CLOUDY    48  46  93 E10       30.40R                  
MANCHESTER NH  LGT RAIN  50  46  86 SE7       30.38S                  
NASHUA NH      LGT RAIN  45  32  60 CALM      30.40S                  
PORTSMOUTH NH  LGT RAIN  49  47  92 SE12      30.42S                  
JAFFREY NH     CLOUDY    48  43  82 VRB6      30.35S                  
KEENE NH       LGT RAIN  49  46  90 VRB3        N/A                   
BURLINGTON VT  CLOUDY    48  44  86 S6        30.24F                  
MT. WASHINGTON LGTSLEET  28  28 100 S45         N/A  VSB 0   WCI  10  
$$

NYZ052-076-070200-
EASTERN NEW YORK
  
CITY           SKY/WX    TMP DP  RH WIND       PRES   REMARKS
ALBANY         CLOUDY    54  47  77 SE10      30.23F                  
NEW YORK CITY  LGT RAIN  56  51  84 S13       30.27S                  
$$
 
ANZALL-070200-
MARINE OBSERVATIONS
  
STATION/POSITION TIME  TEMP    WIND        PRES    VSBY  WAVE
                       AIR SEA DIR/SP/G                  HT/PER
                 (UTC) (F)     (DEG/KT/KT) (MB)    (MI)  (FT/S)
BOSTON BUOY      0050      50  130/ 14/ 16 1030.3F         3/ 5
BUZZARDS BAY     0000   52     130/ 23/ 25 1028.6F
NANTUCKET SOUND  0050   51     110/ 12/ 14 1029.3F         2/ 3
MASS BAY-STELLWA 2304   51 50  130/ 16/ 17 1029.5R  1 7/8  4/ 5
ISLE OF SHOALS   0000   50     130/ 20/ 22 1029.4F
S OF BLOCK IS    0056      54                N/A           6/10
$$

......................KEY.........................
  SKY/WX - SKY CONDITION/PRESENT WEATHER
  TMP    - TEMPERATURE IN FAHRENHEIT
  DWPT   - DEWPOINT IN FAHRENHEIT
  RH     - RELATIVE HUMIDITY IN PERCENT
  WIND   - DIRECTION AND SPEED IN MPH
  PRES   - MEAN SEA LEVEL PRESSURE IN INCHES OF HG
  WCI    - WIND CHILL INDEX
  VSB    - VISIBILITY IN MILES
  HX     - HEAT INDEX
  TC     - TEMPERATURE IN CELSIUS
  VRB    - VARIABLE WIND DIRECTION
  N/A    - NOT AVAILABLE
  
      

Other recent Regional Weather Roundups

Thu Dec 8, 1:10pm

Thu Dec 8, 12:10pm

Thu Dec 8, 11:10am

Thu Dec 8, 10:10am

Thu Dec 8, 9:10am

Thu Dec 8, 8:10am

Thu Dec 8, 7:10am

Thu Dec 8, 6:10am

Thu Dec 8, 5:10am

Thu Dec 8, 4:10am

Thu Dec 8, 3:10am

Thu Dec 8, 2:10am

Thu Dec 8, 1:10am

Thu Dec 8, 12:10am

Wed Dec 7, 11:10pm

Wed Dec 7, 10:10pm

Wed Dec 7, 9:10pm

Wed Dec 7, 8:10pm

Wed Dec 7, 7:10pm

Wed Dec 7, 6:10pm

Wed Dec 7, 5:10pm

Wed Dec 7, 4:10pm

Wed Dec 7, 3:10pm

Wed Dec 7, 2:10pm

Wed Dec 7, 1:10pm

Wed Dec 7, 12:10pm

Wed Dec 7, 11:10am

Wed Dec 7, 10:10am

Wed Dec 7, 9:10am

Wed Dec 7, 8:10am

Wed Dec 7, 7:10am

Wed Dec 7, 6:10am

Wed Dec 7, 5:10am

Wed Dec 7, 4:10am

Wed Dec 7, 3:10am

Wed Dec 7, 2:10am

Wed Dec 7, 1:10am

Wed Dec 7, 12:10am

Tue Dec 6, 11:10pm

Tue Dec 6, 10:10pm

Tue Dec 6, 9:10pm

Tue Dec 6, 7:10pm

Tue Dec 6, 6:10pm

Tue Dec 6, 5:10pm

Tue Dec 6, 4:10pm

Tue Dec 6, 3:10pm

Tue Dec 6, 2:10pm

Tue Dec 6, 1:10pm

Tue Dec 6, 12:10pm

Tue Dec 6, 11:10am

Tue Dec 6, 10:10am

Tue Dec 6, 9:10am

Tue Dec 6, 8:10am

Tue Dec 6, 7:10am

Tue Dec 6, 6:10am

Tue Dec 6, 5:10am

Tue Dec 6, 4:10am

Tue Dec 6, 3:10am

Tue Dec 6, 2:10am

Tue Dec 6, 1:10am

Tue Dec 6, 12:10am

Mon Dec 5, 11:10pm

Mon Dec 5, 10:10pm

Mon Dec 5, 9:10pm

Mon Dec 5, 8:10pm

Mon Dec 5, 7:10pm

Mon Dec 5, 6:10pm

Mon Dec 5, 5:10pm

Mon Dec 5, 4:10pm

Mon Dec 5, 3:10pm

Mon Dec 5, 2:10pm

Mon Dec 5, 1:10pm

Mon Dec 5, 12:10pm

Mon Dec 5, 11:10am

Mon Dec 5, 10:10am

Mon Dec 5, 9:10am

Mon Dec 5, 8:10am

Mon Dec 5, 7:10am

Mon Dec 5, 6:10am

Mon Dec 5, 5:10am

Mon Dec 5, 4:10am

Mon Dec 5, 3:10am

Mon Dec 5, 2:10am

Mon Dec 5, 1:10am

Mon Dec 5, 12:10am

Sun Dec 4, 11:10pm

Sun Dec 4, 10:10pm

Sun Dec 4, 9:10pm

Sun Dec 4, 8:10pm

Sun Dec 4, 7:10pm

Sun Dec 4, 6:10pm

Sun Dec 4, 5:10pm

Sun Dec 4, 4:10pm

Sun Dec 4, 3:10pm

Sun Dec 4, 2:10pm

Sun Dec 4, 1:10pm

Sun Dec 4, 12:10pm

Sun Dec 4, 11:10am

Sun Dec 4, 10:10am

Sun Dec 4, 9:10am

Sun Dec 4, 8:10am

Sun Dec 4, 7:10am

Sun Dec 4, 6:10am

Sun Dec 4, 5:10am

Sun Dec 4, 4:10am

Sun Dec 4, 3:10am

Sun Dec 4, 2:10am

Sun Dec 4, 1:10am

Sun Dec 4, 12:10am

Sat Dec 3, 11:10pm

Sat Dec 3, 10:10pm

Sat Dec 3, 9:10pm

Sat Dec 3, 8:10pm

Sat Dec 3, 7:10pm

Sat Dec 3, 6:10pm

Sat Dec 3, 5:10pm

Sat Dec 3, 4:10pm

Sat Dec 3, 3:10pm

Sat Dec 3, 2:10pm

Sat Dec 3, 1:10pm

Sat Dec 3, 12:10pm

Sat Dec 3, 11:10am

Sat Dec 3, 10:10am

Sat Dec 3, 9:10am

Sat Dec 3, 8:10am

Sat Dec 3, 7:10am

Sat Dec 3, 6:10am

Sat Dec 3, 5:10am

Sat Dec 3, 4:10am

Sat Dec 3, 3:10am

Sat Dec 3, 2:10am

Sat Dec 3, 1:10am

Sat Dec 3, 12:10am

Fri Dec 2, 11:10pm

Fri Dec 2, 10:10pm

Fri Dec 2, 9:10pm

Fri Dec 2, 8:10pm

Fri Dec 2, 7:10pm

Fri Dec 2, 6:10pm

Fri Dec 2, 5:10pm

Fri Dec 2, 4:10pm

Fri Dec 2, 3:10pm

Fri Dec 2, 2:10pm

Fri Dec 2, 1:10pm

Fri Dec 2, 12:10pm

Fri Dec 2, 11:10am

Fri Dec 2, 10:10am

Fri Dec 2, 9:10am

Fri Dec 2, 8:10am

Fri Dec 2, 7:10am

Fri Dec 2, 6:10am

Fri Dec 2, 5:10am

Fri Dec 2, 4:10am

Fri Dec 2, 3:10am

Fri Dec 2, 2:10am

Fri Dec 2, 1:10am

Fri Dec 2, 12:10am

Thu Dec 1, 11:10pm

Thu Dec 1, 10:10pm

Thu Dec 1, 9:10pm

Thu Dec 1, 8:10pm

Thu Dec 1, 7:10pm

Thu Dec 1, 6:10pm

Thu Dec 1, 5:10pm

Thu Dec 1, 4:10pm

Thu Dec 1, 3:10pm

Thu Dec 1, 2:10pm

Meta data:

ID: fb95c657-7079-4261-a841-85d729f11b0b
Link: https://api.weather.gov/products/fb95c657-7079-4261-a841-85d729f11b0b